Year,Month,Day,Hour,Minute,Value (Times are PST for temperature in C)
2013,09,20,00,00,12.90
2013,09,20,00,01,12.90
2013,09,20,00,02,12.90
2013,09,20,00,03,12.80
2013,09,20,00,04,12.80
2013,09,20,00,05,12.80
2013,09,20,00,06,12.80
2013,09,20,00,07,12.80
2013,09,20,00,08,12.80
2013,09,20,00,09,12.80
2013,09,20,00,10,12.80
2013,09,20,00,11,12.80
2013,09,20,00,12,12.70
2013,09,20,00,13,12.70
2013,09,20,00,14,12.70
2013,09,20,00,15,12.70
2013,09,20,00,16,12.70
2013,09,20,00,17,12.70
2013,09,20,00,18,12.70
2013,09,20,00,19,12.70
2013,09,20,00,20,12.60
2013,09,20,00,21,12.60
2013,09,20,00,22,12.60
2013,09,20,00,23,12.60
2013,09,20,00,24,12.60
2013,09,20,00,25,12.60
2013,09,20,00,26,12.60
2013,09,20,00,27,12.60
2013,09,20,00,28,12.60
2013,09,20,00,29,12.60
2013,09,20,00,30,12.60
2013,09,20,00,31,12.60
2013,09,20,00,32,12.60
2013,09,20,00,33,12.60
2013,09,20,00,34,12.60
2013,09,20,00,35,12.60
2013,09,20,00,36,12.50
2013,09,20,00,37,12.50
2013,09,20,00,38,12.50
2013,09,20,00,39,12.50
2013,09,20,00,40,12.50
2013,09,20,00,41,12.50
2013,09,20,00,42,12.50
2013,09,20,00,43,12.50
2013,09,20,00,44,12.50
2013,09,20,00,45,12.50
2013,09,20,00,46,12.50
2013,09,20,00,47,12.50
2013,09,20,00,48,12.40
2013,09,20,00,49,12.40
2013,09,20,00,50,12.40
2013,09,20,00,51,12.40
2013,09,20,00,52,12.40
2013,09,20,00,53,12.40
2013,09,20,00,54,12.40
2013,09,20,00,55,12.50
2013,09,20,00,56,12.50
2013,09,20,00,57,12.50
2013,09,20,00,58,12.50
2013,09,20,00,59,12.50
2013,09,20,01,00,12.60
2013,09,20,01,01,12.60
2013,09,20,01,02,12.60
2013,09,20,01,03,12.60
2013,09,20,01,04,12.60
2013,09,20,01,05,12.60
2013,09,20,01,06,12.60
2013,09,20,01,07,12.60
2013,09,20,01,08,12.60
2013,09,20,01,09,12.60
2013,09,20,01,10,12.60
2013,09,20,01,11,12.60
2013,09,20,01,12,12.60
2013,09,20,01,13,12.60
2013,09,20,01,14,12.60
2013,09,20,01,15,12.60
2013,09,20,01,16,12.60
2013,09,20,01,17,12.60
2013,09,20,01,18,12.60
2013,09,20,01,19,12.60
2013,09,20,01,20,12.60
2013,09,20,01,21,12.60
2013,09,20,01,22,12.60
2013,09,20,01,23,12.60
2013,09,20,01,24,12.60
2013,09,20,01,25,12.60
2013,09,20,01,26,12.50
2013,09,20,01,27,12.60
2013,09,20,01,28,12.50
2013,09,20,01,29,12.50
2013,09,20,01,30,12.50
2013,09,20,01,31,12.50
2013,09,20,01,32,12.50
2013,09,20,01,33,12.50
2013,09,20,01,34,12.50
2013,09,20,01,35,12.50
2013,09,20,01,36,12.50
2013,09,20,01,37,12.50
2013,09,20,01,38,12.50
2013,09,20,01,39,12.50
2013,09,20,01,40,12.50
2013,09,20,01,41,12.50
2013,09,20,01,42,12.50
2013,09,20,01,43,12.50
2013,09,20,01,44,12.50
2013,09,20,01,45,12.60
2013,09,20,01,46,12.60
2013,09,20,01,47,12.60
2013,09,20,01,48,12.60
2013,09,20,01,49,12.60
2013,09,20,01,50,12.60
2013,09,20,01,51,12.60
2013,09,20,01,52,12.70
2013,09,20,01,53,12.70
2013,09,20,01,54,12.80
2013,09,20,01,55,12.80
2013,09,20,01,56,12.80
2013,09,20,01,57,12.80
2013,09,20,01,58,12.80
2013,09,20,01,59,12.90
2013,09,20,02,00,12.90
2013,09,20,02,01,12.90
2013,09,20,02,02,12.90
2013,09,20,02,03,12.90
2013,09,20,02,04,12.90
2013,09,20,02,05,12.90
2013,09,20,02,06,12.90
2013,09,20,02,07,12.90
2013,09,20,02,08,13.00
2013,09,20,02,09,13.00
2013,09,20,02,10,13.00
2013,09,20,02,11,13.00
2013,09,20,02,12,13.10
2013,09,20,02,13,13.10
2013,09,20,02,14,13.10
2013,09,20,02,15,13.20
2013,09,20,02,16,13.20
2013,09,20,02,17,13.30
2013,09,20,02,18,13.30
2013,09,20,02,19,13.30
2013,09,20,02,20,13.40
2013,09,20,02,21,13.40
2013,09,20,02,22,13.40
2013,09,20,02,23,13.50
2013,09,20,02,24,13.50
2013,09,20,02,25,13.60
2013,09,20,02,26,13.60
2013,09,20,02,27,13.60
2013,09,20,02,28,13.70
2013,09,20,02,29,13.70
2013,09,20,02,30,13.70
2013,09,20,02,31,13.80
2013,09,20,02,32,13.80
2013,09,20,02,33,13.80
2013,09,20,02,34,13.90
2013,09,20,02,35,13.90
2013,09,20,02,36,13.90
2013,09,20,02,37,13.90
2013,09,20,02,38,13.90
2013,09,20,02,39,14.00
2013,09,20,02,40,14.00
2013,09,20,02,41,14.00
2013,09,20,02,42,14.10
2013,09,20,02,43,14.10
2013,09,20,02,44,14.10
2013,09,20,02,45,14.10
2013,09,20,02,46,14.10
2013,09,20,02,47,14.10
2013,09,20,02,48,14.10
2013,09,20,02,49,14.10
2013,09,20,02,50,14.10
2013,09,20,02,51,14.10
2013,09,20,02,52,14.10
2013,09,20,02,53,14.10
2013,09,20,02,54,14.10
2013,09,20,02,55,14.10
2013,09,20,02,56,14.10
2013,09,20,02,57,14.10
2013,09,20,02,58,14.10
2013,09,20,02,59,14.10
2013,09,20,03,00,14.10
2013,09,20,03,01,14.10
2013,09,20,03,02,14.10
2013,09,20,03,03,14.00
2013,09,20,03,04,14.00
2013,09,20,03,05,14.00
2013,09,20,03,06,13.90
2013,09,20,03,07,13.90
2013,09,20,03,08,13.90
2013,09,20,03,09,13.90
2013,09,20,03,10,13.90
2013,09,20,03,11,13.90
2013,09,20,03,12,13.90
2013,09,20,03,13,13.80
2013,09,20,03,14,13.80
2013,09,20,03,15,13.90
2013,09,20,03,16,13.80
2013,09,20,03,17,13.80
2013,09,20,03,18,13.80
2013,09,20,03,19,13.80
2013,09,20,03,20,13.80
2013,09,20,03,21,13.80
2013,09,20,03,22,13.80
2013,09,20,03,23,13.80
2013,09,20,03,24,13.80
2013,09,20,03,25,13.80
2013,09,20,03,26,13.80
2013,09,20,03,27,13.80
2013,09,20,03,28,13.80
2013,09,20,03,29,13.80
2013,09,20,03,30,13.80
2013,09,20,03,31,13.80
2013,09,20,03,32,13.80
2013,09,20,03,33,13.80
2013,09,20,03,34,13.80
2013,09,20,03,35,13.70
2013,09,20,03,36,13.70
2013,09,20,03,37,13.70
2013,09,20,03,38,13.70
2013,09,20,03,39,13.70
2013,09,20,03,40,13.70
2013,09,20,03,41,13.70
2013,09,20,03,42,13.70
2013,09,20,03,43,13.70
2013,09,20,03,44,13.70
2013,09,20,03,45,13.70
2013,09,20,03,46,13.70
2013,09,20,03,47,13.70
2013,09,20,03,48,13.70
2013,09,20,03,49,13.60
2013,09,20,03,50,13.60
2013,09,20,03,51,13.60
2013,09,20,03,52,13.60
2013,09,20,03,53,13.60
2013,09,20,03,54,13.60
2013,09,20,03,55,13.60
2013,09,20,03,56,13.60
2013,09,20,03,57,13.60
2013,09,20,03,58,13.60
2013,09,20,03,59,13.60
2013,09,20,04,00,13.60
2013,09,20,04,01,13.60
2013,09,20,04,02,13.60
2013,09,20,04,03,13.60
2013,09,20,04,04,13.60
2013,09,20,04,05,13.60
2013,09,20,04,06,13.60
2013,09,20,04,07,13.60
2013,09,20,04,08,13.60
2013,09,20,04,09,13.60
2013,09,20,04,10,13.60
2013,09,20,04,11,13.60
2013,09,20,04,12,13.60
2013,09,20,04,13,13.60
2013,09,20,04,14,13.60
2013,09,20,04,15,13.60
2013,09,20,04,16,13.60
2013,09,20,04,17,13.60
2013,09,20,04,18,13.70
2013,09,20,04,19,13.70
2013,09,20,04,20,13.70
2013,09,20,04,21,13.70
2013,09,20,04,22,13.70
2013,09,20,04,23,13.70
2013,09,20,04,24,13.70
2013,09,20,04,25,13.70
2013,09,20,04,26,13.70
2013,09,20,04,27,13.70
2013,09,20,04,28,13.70
2013,09,20,04,29,13.70
2013,09,20,04,30,13.70
2013,09,20,04,31,13.70
2013,09,20,04,32,13.70
2013,09,20,04,33,13.70
2013,09,20,04,34,13.70
2013,09,20,04,35,13.70
2013,09,20,04,36,13.70
2013,09,20,04,37,13.80
2013,09,20,04,38,13.80
2013,09,20,04,39,13.80
2013,09,20,04,40,13.80
2013,09,20,04,41,13.80
2013,09,20,04,42,13.80
2013,09,20,04,43,13.80
2013,09,20,04,44,13.80
2013,09,20,04,45,13.80
2013,09,20,04,46,13.80
2013,09,20,04,47,13.80
2013,09,20,04,48,13.80
2013,09,20,04,49,13.80
2013,09,20,04,50,13.80
2013,09,20,04,51,13.80
2013,09,20,04,52,13.80
2013,09,20,04,53,13.80
2013,09,20,04,54,13.80
2013,09,20,04,55,13.80
2013,09,20,04,56,13.80
2013,09,20,04,57,13.80
2013,09,20,04,58,13.80
2013,09,20,04,59,13.80
2013,09,20,05,00,13.80
2013,09,20,05,01,13.80
2013,09,20,05,02,13.80
2013,09,20,05,03,13.80
2013,09,20,05,04,13.80
2013,09,20,05,05,13.80
2013,09,20,05,06,13.80
2013,09,20,05,07,13.80
2013,09,20,05,08,13.90
2013,09,20,05,09,13.90
2013,09,20,05,10,13.90
2013,09,20,05,11,13.90
2013,09,20,05,12,13.90
2013,09,20,05,13,13.90
2013,09,20,05,14,13.90
2013,09,20,05,15,14.00
2013,09,20,05,16,14.00
2013,09,20,05,17,14.00
2013,09,20,05,18,14.00
2013,09,20,05,19,14.00
2013,09,20,05,20,14.00
2013,09,20,05,21,14.00
2013,09,20,05,22,14.00
2013,09,20,05,23,14.00
2013,09,20,05,24,14.10
2013,09,20,05,25,14.10
2013,09,20,05,26,14.10
2013,09,20,05,27,14.10
2013,09,20,05,28,14.10
2013,09,20,05,29,14.10
2013,09,20,05,30,14.20
2013,09,20,05,31,14.20
2013,09,20,05,32,14.20
2013,09,20,05,33,14.20
2013,09,20,05,34,14.30
2013,09,20,05,35,14.30
2013,09,20,05,36,14.30
2013,09,20,05,37,14.40
2013,09,20,05,38,14.40
2013,09,20,05,39,14.40
2013,09,20,05,40,14.50
2013,09,20,05,41,14.50
2013,09,20,05,42,14.60
2013,09,20,05,43,14.60
2013,09,20,05,44,14.60
2013,09,20,05,45,14.70
2013,09,20,05,46,14.70
2013,09,20,05,47,14.70
2013,09,20,05,48,14.80
2013,09,20,05,49,14.80
2013,09,20,05,50,14.80
2013,09,20,05,51,14.90
2013,09,20,05,52,14.90
2013,09,20,05,53,14.90
2013,09,20,05,54,15.00
2013,09,20,05,55,15.00
2013,09,20,05,56,15.00
2013,09,20,05,57,15.10
2013,09,20,05,58,15.10
2013,09,20,05,59,15.10
2013,09,20,06,00,15.10
2013,09,20,06,01,15.10
2013,09,20,06,02,15.10
2013,09,20,06,03,15.10
2013,09,20,06,04,15.10
2013,09,20,06,05,15.10
2013,09,20,06,06,15.10
2013,09,20,06,07,15.10
2013,09,20,06,08,15.10
2013,09,20,06,09,15.10
2013,09,20,06,10,15.10
2013,09,20,06,11,15.10
2013,09,20,06,12,15.10
2013,09,20,06,13,15.10
2013,09,20,06,14,15.10
2013,09,20,06,15,15.10
2013,09,20,06,16,15.10
2013,09,20,06,17,15.10
2013,09,20,06,18,15.10
2013,09,20,06,19,15.10
2013,09,20,06,20,15.20
2013,09,20,06,21,15.20
2013,09,20,06,22,15.20
2013,09,20,06,23,15.20
2013,09,20,06,24,15.20
2013,09,20,06,25,15.20
2013,09,20,06,26,15.20
2013,09,20,06,27,15.30
2013,09,20,06,28,15.30
2013,09,20,06,29,15.30
2013,09,20,06,30,15.30
2013,09,20,06,31,15.30
2013,09,20,06,32,15.30
2013,09,20,06,33,15.40
2013,09,20,06,34,15.40
2013,09,20,06,35,15.50
2013,09,20,06,36,15.50
2013,09,20,06,37,15.50
2013,09,20,06,38,15.60
2013,09,20,06,39,15.60
2013,09,20,06,40,15.60
2013,09,20,06,41,15.70
2013,09,20,06,42,15.70
2013,09,20,06,43,15.70
2013,09,20,06,44,15.70
2013,09,20,06,45,15.70
2013,09,20,06,46,15.70
2013,09,20,06,47,15.60
2013,09,20,06,48,15.60
2013,09,20,06,49,15.60
2013,09,20,06,50,15.60
2013,09,20,06,51,15.60
2013,09,20,06,52,15.60
2013,09,20,06,53,15.60
2013,09,20,06,54,15.60
2013,09,20,06,55,15.70
2013,09,20,06,56,15.70
2013,09,20,06,57,15.70
2013,09,20,06,58,15.70
2013,09,20,06,59,15.70
2013,09,20,07,00,15.70
2013,09,20,07,01,15.70
2013,09,20,07,02,15.70
2013,09,20,07,03,15.70
2013,09,20,07,04,15.70
2013,09,20,07,05,15.70
2013,09,20,07,06,15.70
2013,09,20,07,07,15.70
2013,09,20,07,08,15.60
2013,09,20,07,09,15.60
2013,09,20,07,10,15.60
2013,09,20,07,11,15.60
2013,09,20,07,12,15.60
2013,09,20,07,13,15.60
2013,09,20,07,14,15.60
2013,09,20,07,15,15.60
2013,09,20,07,16,15.60
2013,09,20,07,17,15.60
2013,09,20,07,18,15.60
2013,09,20,07,19,15.60
2013,09,20,07,20,15.60
2013,09,20,07,21,15.60
2013,09,20,07,22,15.60
2013,09,20,07,23,15.70
2013,09,20,07,24,15.70
2013,09,20,07,25,15.70
2013,09,20,07,26,15.70
2013,09,20,07,27,15.70
2013,09,20,07,28,15.70
2013,09,20,07,29,15.70
2013,09,20,07,30,15.70
2013,09,20,07,31,15.70
2013,09,20,07,32,15.70
2013,09,20,07,33,15.70
2013,09,20,07,34,15.70
2013,09,20,07,35,15.80
2013,09,20,07,36,15.80
2013,09,20,07,37,15.80
2013,09,20,07,38,15.80
2013,09,20,07,39,15.80
2013,09,20,07,40,15.80
2013,09,20,07,41,15.80
2013,09,20,07,42,15.80
2013,09,20,07,43,15.80
2013,09,20,07,44,15.80
2013,09,20,07,45,15.80
2013,09,20,07,46,15.80
2013,09,20,07,47,15.80
2013,09,20,07,48,15.80
2013,09,20,07,49,15.80
2013,09,20,07,50,15.80
2013,09,20,07,51,15.80
2013,09,20,07,52,15.80
2013,09,20,07,53,15.80
2013,09,20,07,54,15.80
2013,09,20,07,55,15.80
2013,09,20,07,56,15.80
2013,09,20,07,57,15.80
2013,09,20,07,58,15.80
2013,09,20,07,59,15.80
2013,09,20,08,00,15.80
2013,09,20,08,01,15.80
2013,09,20,08,02,15.80
2013,09,20,08,03,15.80
2013,09,20,08,04,15.80
2013,09,20,08,05,15.80
2013,09,20,08,06,15.80
2013,09,20,08,07,15.80
2013,09,20,08,08,15.80
2013,09,20,08,09,15.80
2013,09,20,08,10,15.80
2013,09,20,08,11,15.80
2013,09,20,08,12,15.80
2013,09,20,08,13,15.80
2013,09,20,08,14,15.80
2013,09,20,08,15,15.80
2013,09,20,08,16,15.80
2013,09,20,08,17,15.80
2013,09,20,08,18,15.80
2013,09,20,08,19,15.80
2013,09,20,08,20,15.80
2013,09,20,08,21,15.80
2013,09,20,08,22,15.70
2013,09,20,08,23,15.70
2013,09,20,08,24,15.70
2013,09,20,08,25,15.70
2013,09,20,08,26,15.70
2013,09,20,08,27,15.70
2013,09,20,08,28,15.70
2013,09,20,08,29,15.70
2013,09,20,08,30,15.70
2013,09,20,08,31,15.70
2013,09,20,08,32,15.70
2013,09,20,08,33,15.70
2013,09,20,08,34,15.70
2013,09,20,08,35,15.70
2013,09,20,08,36,15.60
2013,09,20,08,37,15.60
2013,09,20,08,38,15.60
2013,09,20,08,39,15.60
2013,09,20,08,40,15.60
2013,09,20,08,41,15.60
2013,09,20,08,42,15.60
2013,09,20,08,43,15.60
2013,09,20,08,44,15.60
2013,09,20,08,45,15.60
2013,09,20,08,46,15.60
2013,09,20,08,47,15.60
2013,09,20,08,48,15.60
2013,09,20,08,49,15.60
2013,09,20,08,50,15.60
2013,09,20,08,51,15.60
2013,09,20,08,52,15.60
2013,09,20,08,53,15.60
2013,09,20,08,54,15.60
2013,09,20,08,55,15.60
2013,09,20,08,56,15.60
2013,09,20,08,57,15.60
2013,09,20,08,58,15.60
2013,09,20,08,59,15.60
2013,09,20,09,00,15.60
2013,09,20,09,01,15.60
2013,09,20,09,02,15.60
2013,09,20,09,03,15.70
2013,09,20,09,04,15.70
2013,09,20,09,05,15.80
2013,09,20,09,06,15.80
2013,09,20,09,07,15.90
2013,09,20,09,08,15.90
2013,09,20,09,09,15.90
2013,09,20,09,10,15.90
2013,09,20,09,11,16.00
2013,09,20,09,12,16.00
2013,09,20,09,13,16.00
2013,09,20,09,14,16.00
2013,09,20,09,15,16.10
2013,09,20,09,16,16.10
2013,09,20,09,17,16.10
2013,09,20,09,18,16.10
2013,09,20,09,19,16.10
2013,09,20,09,20,16.00
2013,09,20,09,21,16.00
2013,09,20,09,22,16.00
2013,09,20,09,23,16.00
2013,09,20,09,24,16.00
2013,09,20,09,25,16.00
2013,09,20,09,26,16.00
2013,09,20,09,27,16.00
2013,09,20,09,28,15.90
2013,09,20,09,29,15.90
2013,09,20,09,30,15.90
2013,09,20,09,31,15.90
2013,09,20,09,32,15.90
2013,09,20,09,33,15.90
2013,09,20,09,34,15.90
2013,09,20,09,35,15.90
2013,09,20,09,36,15.90
2013,09,20,09,37,15.90
2013,09,20,09,38,15.90
2013,09,20,09,39,15.90
2013,09,20,09,40,16.00
2013,09,20,09,41,16.00
2013,09,20,09,42,16.00
2013,09,20,09,43,16.00
2013,09,20,09,44,16.00
2013,09,20,09,45,16.10
2013,09,20,09,46,16.10
2013,09,20,09,47,16.10
2013,09,20,09,48,16.10
2013,09,20,09,49,16.10
2013,09,20,09,50,16.10
2013,09,20,09,51,16.10
2013,09,20,09,52,16.10
2013,09,20,09,53,16.10
2013,09,20,09,54,16.10
2013,09,20,09,55,16.10
2013,09,20,09,56,16.20
2013,09,20,09,57,16.10
2013,09,20,09,58,16.10
2013,09,20,09,59,16.10
2013,09,20,10,00,16.10
2013,09,20,10,01,16.10
2013,09,20,10,02,16.10
2013,09,20,10,03,16.10
2013,09,20,10,04,16.10
2013,09,20,10,05,16.10
2013,09,20,10,06,16.10
2013,09,20,10,07,16.10
2013,09,20,10,08,16.10
2013,09,20,10,09,16.10
2013,09,20,10,10,16.00
2013,09,20,10,11,15.90
2013,09,20,10,12,15.90
2013,09,20,10,13,15.80
2013,09,20,10,14,15.80
2013,09,20,10,15,15.70
2013,09,20,10,16,15.50
2013,09,20,10,17,15.50
2013,09,20,10,18,15.40
2013,09,20,10,19,15.30
2013,09,20,10,20,15.20
2013,09,20,10,21,15.10
2013,09,20,10,22,15.00
2013,09,20,10,23,15.00
2013,09,20,10,24,14.90
2013,09,20,10,25,14.80
2013,09,20,10,26,14.80
2013,09,20,10,27,14.80
2013,09,20,10,28,14.70
2013,09,20,10,29,14.70
2013,09,20,10,30,14.70
2013,09,20,10,31,14.60
2013,09,20,10,32,14.60
2013,09,20,10,33,14.60
2013,09,20,10,34,14.50
2013,09,20,10,35,14.50
2013,09,20,10,36,14.50
2013,09,20,10,37,14.40
2013,09,20,10,38,14.40
2013,09,20,10,39,14.40
2013,09,20,10,40,14.40
2013,09,20,10,41,14.40
2013,09,20,10,42,14.40
2013,09,20,10,43,14.40
2013,09,20,10,44,14.40
2013,09,20,10,45,14.40
2013,09,20,10,46,14.40
2013,09,20,10,47,14.40
2013,09,20,10,48,14.40
2013,09,20,10,49,14.40
2013,09,20,10,50,14.40
2013,09,20,10,51,14.40
2013,09,20,10,52,14.40
2013,09,20,10,53,14.40
2013,09,20,10,54,14.40
2013,09,20,10,55,14.40
2013,09,20,10,56,14.40
2013,09,20,10,57,14.40
2013,09,20,10,58,14.40
2013,09,20,10,59,14.40
2013,09,20,11,00,14.40
2013,09,20,11,01,14.40
2013,09,20,11,02,14.40
2013,09,20,11,03,14.40
2013,09,20,11,04,14.40
2013,09,20,11,05,14.40
2013,09,20,11,06,14.40
2013,09,20,11,07,14.40
2013,09,20,11,08,14.40
2013,09,20,11,09,14.40
2013,09,20,11,10,14.40
2013,09,20,11,11,14.40
2013,09,20,11,12,14.40
2013,09,20,11,13,14.40
2013,09,20,11,14,14.40
2013,09,20,11,15,14.40
2013,09,20,11,16,14.40
2013,09,20,11,17,14.50
2013,09,20,11,18,14.50
2013,09,20,11,19,14.60
2013,09,20,11,20,14.60
2013,09,20,11,21,14.60
2013,09,20,11,22,14.70
2013,09,20,11,23,14.70
2013,09,20,11,24,14.70
2013,09,20,11,25,14.60
2013,09,20,11,26,14.60
2013,09,20,11,27,14.60
2013,09,20,11,28,14.60
2013,09,20,11,29,14.60
2013,09,20,11,30,14.60
2013,09,20,11,31,14.60
2013,09,20,11,32,14.70
2013,09,20,11,33,14.70
2013,09,20,11,34,14.70
2013,09,20,11,35,14.70
2013,09,20,11,36,14.70
2013,09,20,11,37,14.70
2013,09,20,11,38,14.70
2013,09,20,11,39,14.70
2013,09,20,11,40,14.70
2013,09,20,11,41,14.70
2013,09,20,11,42,14.80
2013,09,20,11,43,14.80
2013,09,20,11,44,14.80
2013,09,20,11,45,14.80
2013,09,20,11,46,14.70
2013,09,20,11,47,14.70
2013,09,20,11,48,14.70
2013,09,20,11,49,14.70
2013,09,20,11,50,14.70
2013,09,20,11,51,14.70
2013,09,20,11,52,14.80
2013,09,20,11,53,14.80
2013,09,20,11,54,14.80
2013,09,20,11,55,14.80
2013,09,20,11,56,14.80
2013,09,20,11,57,14.80
2013,09,20,11,58,14.80
2013,09,20,11,59,14.80
2013,09,20,12,00,14.80
2013,09,20,12,01,14.80
2013,09,20,12,02,14.80
2013,09,20,12,03,14.80
2013,09,20,12,04,14.80
2013,09,20,12,05,14.80
2013,09,20,12,06,14.90
2013,09,20,12,07,14.90
2013,09,20,12,08,14.90
2013,09,20,12,09,14.90
2013,09,20,12,10,14.90
2013,09,20,12,11,14.90
2013,09,20,12,12,14.90
2013,09,20,12,13,14.90
2013,09,20,12,14,14.90
2013,09,20,12,15,14.90
2013,09,20,12,16,14.80
2013,09,20,12,17,14.90
2013,09,20,12,18,14.90
2013,09,20,12,19,14.90
2013,09,20,12,20,14.90
2013,09,20,12,21,14.90
2013,09,20,12,22,14.90
2013,09,20,12,23,14.90
2013,09,20,12,24,14.90
2013,09,20,12,25,14.90
2013,09,20,12,26,14.90
2013,09,20,12,27,14.90
2013,09,20,12,28,14.90
2013,09,20,12,29,14.90
2013,09,20,12,30,14.90
2013,09,20,12,31,14.90
2013,09,20,12,32,14.90
2013,09,20,12,33,14.90
2013,09,20,12,34,14.90
2013,09,20,12,35,14.90
2013,09,20,12,36,14.90
2013,09,20,12,37,14.90
2013,09,20,12,38,14.90
2013,09,20,12,39,14.80
2013,09,20,12,40,14.80
2013,09,20,12,41,14.80
2013,09,20,12,42,14.80
2013,09,20,12,43,14.80
2013,09,20,12,44,14.80
2013,09,20,12,45,14.90
2013,09,20,12,46,14.80
2013,09,20,12,47,14.90
2013,09,20,12,48,14.80
2013,09,20,12,49,14.80
2013,09,20,12,50,14.80
2013,09,20,12,51,14.80
2013,09,20,12,52,14.90
2013,09,20,12,53,14.80
2013,09,20,12,54,14.80
2013,09,20,12,55,14.90
2013,09,20,12,56,14.80
2013,09,20,12,57,14.90
2013,09,20,12,58,14.90
2013,09,20,12,59,14.90
2013,09,20,13,00,15.00
2013,09,20,13,01,15.00
2013,09,20,13,02,15.10
2013,09,20,13,03,15.00
2013,09,20,13,04,15.10
2013,09,20,13,05,15.10
2013,09,20,13,06,15.10
2013,09,20,13,07,15.10
2013,09,20,13,08,15.10
2013,09,20,13,09,15.10
2013,09,20,13,10,15.20
2013,09,20,13,11,15.20
2013,09,20,13,12,15.20
2013,09,20,13,13,15.20
2013,09,20,13,14,15.20
2013,09,20,13,15,15.30
2013,09,20,13,16,15.30
2013,09,20,13,17,15.40
2013,09,20,13,18,15.40
2013,09,20,13,19,15.40
2013,09,20,13,20,15.50
2013,09,20,13,21,15.50
2013,09,20,13,22,15.60
2013,09,20,13,23,15.60
2013,09,20,13,24,15.60
2013,09,20,13,25,15.60
2013,09,20,13,26,15.60
2013,09,20,13,27,15.60
2013,09,20,13,28,15.60
2013,09,20,13,29,15.60
2013,09,20,13,30,15.60
2013,09,20,13,31,15.60
2013,09,20,13,32,15.70
2013,09,20,13,33,15.70
2013,09,20,13,34,15.70
2013,09,20,13,35,15.70
2013,09,20,13,36,15.80
2013,09,20,13,37,15.80
2013,09,20,13,38,15.80
2013,09,20,13,39,15.70
2013,09,20,13,40,15.70
2013,09,20,13,41,15.70
2013,09,20,13,42,15.80
2013,09,20,13,43,15.80
2013,09,20,13,44,15.80
2013,09,20,13,45,15.80
2013,09,20,13,46,15.80
2013,09,20,13,47,15.80
2013,09,20,13,48,15.80
2013,09,20,13,49,15.80
2013,09,20,13,50,15.80
2013,09,20,13,51,15.80
2013,09,20,13,52,15.80
2013,09,20,13,53,15.80
2013,09,20,13,54,15.80
2013,09,20,13,55,15.80
2013,09,20,13,56,15.80
2013,09,20,13,57,15.80
2013,09,20,13,58,15.80
2013,09,20,13,59,15.90
2013,09,20,14,00,15.90
2013,09,20,14,01,15.90
2013,09,20,14,02,15.90
2013,09,20,14,03,15.90
2013,09,20,14,04,15.90
2013,09,20,14,05,15.90
2013,09,20,14,06,15.90
2013,09,20,14,07,15.90
2013,09,20,14,08,15.90
2013,09,20,14,09,15.90
2013,09,20,14,10,15.90
2013,09,20,14,11,15.90
2013,09,20,14,12,15.90
2013,09,20,14,13,15.90
2013,09,20,14,14,15.90
2013,09,20,14,15,15.90
2013,09,20,14,16,15.90
2013,09,20,14,17,16.00
2013,09,20,14,18,16.00
2013,09,20,14,19,16.10
2013,09,20,14,20,16.10
2013,09,20,14,21,16.10
2013,09,20,14,22,16.10
2013,09,20,14,23,16.10
2013,09,20,14,24,16.10
2013,09,20,14,25,16.10
2013,09,20,14,26,16.10
2013,09,20,14,27,16.10
2013,09,20,14,28,16.10
2013,09,20,14,29,16.10
2013,09,20,14,30,16.10
2013,09,20,14,31,16.10
2013,09,20,14,32,16.10
2013,09,20,14,33,16.10
2013,09,20,14,34,16.10
2013,09,20,14,35,16.10
2013,09,20,14,36,16.20
2013,09,20,14,37,16.20
2013,09,20,14,38,16.20
2013,09,20,14,39,16.20
2013,09,20,14,40,16.20
2013,09,20,14,41,16.20
2013,09,20,14,42,16.20
2013,09,20,14,43,16.20
2013,09,20,14,44,16.20
2013,09,20,14,45,16.20
2013,09,20,14,46,16.20
2013,09,20,14,47,16.20
2013,09,20,14,48,16.20
2013,09,20,14,49,16.20
2013,09,20,14,50,16.20
2013,09,20,14,51,16.20
2013,09,20,14,52,16.20
2013,09,20,14,53,16.20
2013,09,20,14,54,16.30
2013,09,20,14,55,16.30
2013,09,20,14,56,16.30
2013,09,20,14,57,16.30
2013,09,20,14,58,16.30
2013,09,20,14,59,16.30
2013,09,20,15,00,16.30
2013,09,20,15,01,16.30
2013,09,20,15,02,16.30
2013,09,20,15,03,16.30
2013,09,20,15,04,16.30
2013,09,20,15,05,16.30
2013,09,20,15,06,16.30
2013,09,20,15,07,16.30
2013,09,20,15,08,16.30
2013,09,20,15,09,16.30
2013,09,20,15,10,16.30
2013,09,20,15,11,16.30
2013,09,20,15,12,16.30
2013,09,20,15,13,16.30
2013,09,20,15,14,16.20
2013,09,20,15,15,16.20
2013,09,20,15,16,16.20
2013,09,20,15,17,16.20
2013,09,20,15,18,16.10
2013,09,20,15,19,16.00
2013,09,20,15,20,15.90
2013,09,20,15,21,15.90
2013,09,20,15,22,15.80
2013,09,20,15,23,15.80
2013,09,20,15,24,15.70
2013,09,20,15,25,15.70
2013,09,20,15,26,15.60
2013,09,20,15,27,15.60
2013,09,20,15,28,15.60
2013,09,20,15,29,15.50
2013,09,20,15,30,15.50
2013,09,20,15,31,15.40
2013,09,20,15,32,15.40
2013,09,20,15,33,15.30
2013,09,20,15,34,15.30
2013,09,20,15,35,15.30
2013,09,20,15,36,15.20
2013,09,20,15,37,15.20
2013,09,20,15,38,15.10
2013,09,20,15,39,15.10
2013,09,20,15,40,15.00
2013,09,20,15,41,14.90
2013,09,20,15,42,14.90
2013,09,20,15,43,14.80
2013,09,20,15,44,14.80
2013,09,20,15,45,14.80
2013,09,20,15,46,14.70
2013,09,20,15,47,14.70
2013,09,20,15,48,14.70
2013,09,20,15,49,14.60
2013,09,20,15,50,14.60
2013,09,20,15,51,14.50
2013,09,20,15,52,14.40
2013,09,20,15,53,14.40
2013,09,20,15,54,14.40
2013,09,20,15,55,14.40
2013,09,20,15,56,14.30
2013,09,20,15,57,14.30
2013,09,20,15,58,14.30
2013,09,20,15,59,14.30
2013,09,20,16,00,14.30
2013,09,20,16,01,14.30
2013,09,20,16,02,14.30
2013,09,20,16,03,14.30
2013,09,20,16,04,14.30
2013,09,20,16,05,14.30
2013,09,20,16,06,14.30
2013,09,20,16,07,14.20
2013,09,20,16,08,14.30
2013,09,20,16,09,14.20
2013,09,20,16,10,14.20
2013,09,20,16,11,14.20
2013,09,20,16,12,14.20
2013,09,20,16,13,14.10
2013,09,20,16,14,14.10
2013,09,20,16,15,14.10
2013,09,20,16,16,14.10
2013,09,20,16,17,14.10
2013,09,20,16,18,14.10
2013,09,20,16,19,14.10
2013,09,20,16,20,14.10
2013,09,20,16,21,14.10
2013,09,20,16,22,14.10
2013,09,20,16,23,14.10
2013,09,20,16,24,14.10
2013,09,20,16,25,14.10
2013,09,20,16,26,14.10
2013,09,20,16,27,14.10
2013,09,20,16,28,14.10
2013,09,20,16,29,14.10
2013,09,20,16,30,14.00
2013,09,20,16,31,14.00
2013,09,20,16,32,14.00
2013,09,20,16,33,14.00
2013,09,20,16,34,14.00
2013,09,20,16,35,14.00
2013,09,20,16,36,14.00
2013,09,20,16,37,14.00
2013,09,20,16,38,14.00
2013,09,20,16,39,14.00
2013,09,20,16,40,14.00
2013,09,20,16,41,14.00
2013,09,20,16,42,13.90
2013,09,20,16,43,13.90
2013,09,20,16,44,13.90
2013,09,20,16,45,13.90
2013,09,20,16,46,13.90
2013,09,20,16,47,13.90
2013,09,20,16,48,13.90
2013,09,20,16,49,13.90
2013,09,20,16,50,13.90
2013,09,20,16,51,13.90
2013,09,20,16,52,13.90
2013,09,20,16,53,13.90
2013,09,20,16,54,13.90
2013,09,20,16,55,13.90
2013,09,20,16,56,13.90
2013,09,20,16,57,14.00
2013,09,20,16,58,14.00
2013,09,20,16,59,13.90
2013,09,20,17,00,13.90
2013,09,20,17,01,13.90
2013,09,20,17,02,14.00
2013,09,20,17,03,14.00
2013,09,20,17,04,13.90
2013,09,20,17,05,14.00
2013,09,20,17,06,14.00
2013,09,20,17,07,14.00
2013,09,20,17,08,14.00
2013,09,20,17,09,14.00
2013,09,20,17,10,14.00
2013,09,20,17,11,14.00
2013,09,20,17,12,14.00
2013,09,20,17,13,14.00
2013,09,20,17,14,14.00
2013,09,20,17,15,14.00
2013,09,20,17,16,14.00
2013,09,20,17,17,14.00
2013,09,20,17,18,14.10
2013,09,20,17,19,14.10